Location: Champseau
(45.8333°N, 1.7667°E)
Time: 06:25:52
(UTC+00:00)

Meteor 2-1 Rocket - Pass Details

Date: 18 April 2021
Orbit: 828 x 909 km, 81.3° (Epoch: 05 May)

Event Time Altitude Azimuth Distance (km) Brightness Sun altitude
Rises 20:19:17 0° 191° (S) 3,463 7.1 -15.7°
Reaches altitude 10° 20:21:42 10° 192° (SSW) 2,540 6.5 -16.1°
Maximum altitude 20:27:31 84° 280° (W) 909 4.4 -16.9°
Drops below altitude 10° 20:33:28 10° 10° (N) 2,598 7.1 -17.7°
Sets 20:35:58 0° 11° (N) 3,548 7.8 -18.0°
